Погода в Балашове

Россия / Саратовская область     51°33′16″N   43°08′47″E
темп.,
°C
ветер,
м/с
пор.,
м/с
влажн.,
%
обл.,
%
осадки,
мм/ч
давл.,
гПа
погр.,
м
24 января, пн
пн2401:00−5в51196100 1.3 1027359
04:00−6всв61289100 1.5 1027351
07:00−9всв51386100 0.0 1028291
10:00−10всв51386100 0.0 1029319
13:00−8в51486100 0.0 1029393
16:00−7всв51287100 0.0 1028390
19:00−10в411905 0.0 1029242
22:00−11в5129296 0.0 1029236
25 января, вт
вт2501:00−12в4109374 0.0 1029215
04:00−11в4994100 0.0 1028213
07:00−11в4895100 0.0 1027178
10:00−10вюв4795100 0.1 1026187
13:00−8юв479470 0.1 1025231
16:00−7юв249546 0.1 1024160
19:00−13юв3310095 0.0 102434
22:00−11ююв359786 0.1 102381
26 января, ср
ср2601:00−12ю349799 0.1 102262
04:00−12ююз1198100 0.2 102111
07:00−11ююв2297100 0.1 102038
10:00−10ююз2296100 0.2 102060
13:00−7зюз2493100 0.1 1019235
16:00−7зюз2595100 0.1 1019288
19:00−12юз2299100 0.0 102119
22:00−13юз229989 0.1 102128
27 января, чт
чт2701:00−13зюз239989 0.1 102141
04:00−17юз22100100 0.1 102130
07:00−18ююз22100100 0.1 102128
10:00−19юз11100100 0.1 102215
13:00−11ююз349596 0.0 1021160
16:00−9ююз249477 0.1 1020170
19:00−15ю2210092 0.0 102016
22:00−11ю249693 0.2 101975
28 января, пт
пт2801:00−11ю359789 0.1 101998
04:00−10ю379781 0.3 1018127
07:00−9ю3796100 0.1 1017139
10:00−10ю379773 0.3 1017147
13:00−7ююз489499 0.1 1016359
16:00−7ю4109489 0.1 1015398
19:00−9ююв51294100 0.0 1013265
22:00−7ююв61295100 0.1 1011324